Overview Statistics Trail Chart Weather Telemetry Raw packets
 

This is the latest recevied weather packets stored in our database for station/object IU5JAE-13. If no packets are shown the sender has not sent any weather packets the latest 10 day(s).

<< 27 28 29 30 31 32 33 >>
Time Temp. Humidity Pressure Rain* Wind** Luminosity Snow
1788299134 19.44° C 81% 1020.6 hPa 0 mm - 0 W/m² -
1788298532 19.44° C 81% 1020.4 hPa 0 mm - 0 W/m² -
1788297929 19.44° C 80% 1020.5 hPa 0 mm - 0 W/m² -
1788297327 20° C 80% 1020.5 hPa 0 mm - 0 W/m² -
1788296725 20° C 80% 1020.5 hPa 0 mm - 0 W/m² -
1788296122 20° C 79% 1020.4 hPa 0 mm - 0 W/m² -
1788295520 20° C 78% 1020.5 hPa 0 mm - 0 W/m² -
1788294917 20.56° C 78% 1020.5 hPa 0 mm - 0 W/m² -
1788294335 20° C 78% 1020.5 hPa 0 mm - 0 W/m² -
1788293732 20° C 77% 1020.5 hPa 0 mm - 0 W/m² -
1788293130 20° C 77% 1020.6 hPa 0 mm - 0 W/m² -
1788292527 20° C 77% 1020.5 hPa 0 mm - 0 W/m² -
1788291925 20.56° C 76% 1020.4 hPa 0 mm - 0 W/m² -
1788291323 20.56° C 75% 1020.4 hPa 0 mm - 0 W/m² -
1788290720 21.11° C 74% 1020.3 hPa 0 mm - 0 W/m² -
1788290118 21.11° C 73% 1019.9 hPa 0 mm - 0 W/m² -
1788289515 21.11° C 70% 1019.8 hPa 0 mm - 0 W/m² -
1788288933 21.67° C 69% 1019.5 hPa 0 mm - 0 W/m² -
1788288331 21.67° C 68% 1019.5 hPa 0 mm - 0 W/m² -
1788287728 21.67° C 68% 1019.4 hPa 0 mm - 0 W/m² -
1788287126 21.67° C 69% 1019.4 hPa 0 mm - 0 W/m² -
1788286523 21.67° C 69% 1019.6 hPa 0 mm - 0 W/m² -
1788285921 22.22° C 71% 1019.5 hPa 0 mm - 1 W/m² -
1788285318 22.22° C 71% 1019.6 hPa 0 mm - 3 W/m² -
1788284716 21.67° C 73% 1019.5 hPa 0 mm - 6 W/m² -

* Rain latest hour (hover to see other rain measurements)
** Current wind speed in m/s (hover to see current wind gust speed)